EW4092 Weather Reports


time (UTC)temp
F
wind
direction
speed
knots
gust
knots
rain 1hr
in
rain 24hr
in
rain mn
in
humidity
%
barometer
mb
20260503214533 83 242 2.6 7.0 0.00 0.00 0.00 21 1011.3
20260503213010 83 257 2.6 5.2 0.00 0.00 0.00 22 1011.6
20260503211508 83 262 0.9 6.1 0.00 0.00 0.00 23 1011.8
20260503210006 84 326 2.6 7.0 0.00 0.00 0.00 23 1012.0
20260503204504 84 91 0.9 6.1 0.00 0.00 0.00 23 1012.3
20260503203003 83 103 1.7 6.1 0.00 0.00 0.00 23 1012.5
20260503201559 82 275 1.7 4.3 0.00 0.00 0.00 24 1012.6
20260503200056 82 156 0.0 3.5 0.00 0.00 0.00 23 1012.8
20260503194602 81 275 0.0 7.0 0.00 0.00 0.00 24 1013.0
20260503193056 81 94 2.6 6.1 0.00 0.00 0.00 25 1013.2
20260503191607 80 36 0.9 2.6 0.00 0.00 0.00 27 1013.4
20260503190050 80 354 0.9 5.2 0.00 0.00 0.00 28 1013.6
20260503184646 80 52 0.0 5.2 0.00 0.00 0.00 27 1013.7
20260503183039 79 56 1.7 3.5 0.00 0.00 0.00 29 1013.9
20260503181547 78 111 0.0 3.5 0.00 0.00 0.00 30 1014.0
20260503180039 78 186 0.9 4.3 0.00 0.00 0.00 29 1014.2
20260503174541 77 89 0.0 3.5 0.00 0.00 0.00 32 1014.3
20260503173027 76 108 0.9 4.3 0.00 0.00 0.00 34 1014.2
20260503171524 75 143 0.9 4.3 0.00 0.00 0.00 35 1014.5
20260503081504 56 109 0.0 0.0 0.00 0.00 0.00 62 1014.7
20260503071612 57 109 0.0 0.0 0.00 0.00 0.00 60 1014.4
20260503054607 61 96 0.0 0.9 0.00 0.00 0.00 55 1013.9
20260503053050 65 117 0.9 2.6 0.00 0.00 0.00 46 1013.8
20260503051549 64 103 0.0 0.9 0.00 0.00 0.00 48 1013.7
20260503050048 65 103 0.0 1.7 0.00 0.00 0.00 47 1013.5
20260503044549 66 79 0.0 1.7 0.00 0.00 0.00 46 1013.5
20260503043054 66 110 0.0 0.0 0.00 0.00 0.00 45 1013.4
20260503041547 69 110 0.0 0.0 0.00 0.00 0.00 41 1013.2
20260503040051 72 146 0.0 0.0 0.00 0.00 0.00 35 1013.0
20260503034548 74 146 0.0 0.9 0.00 0.00 0.00 32 1012.8
20260503033045 75 156 0.0 1.7 0.00 0.00 0.00 30 1012.6
20260503031545 77 184 0.0 2.6 0.00 0.00 0.00 29 1012.4
20260503030044 78 167 0.0 4.3 0.00 0.00 0.00 28 1012.3
20260503024546 79 212 1.7 4.3 0.00 0.00 0.00 26 1012.2
20260503023047 80 243 2.6 6.1 0.00 0.00 0.00 26 1012.1
20260503021543 81 191 3.5 7.0 0.00 0.00 0.00 25 1012.0
20260503020043 81 208 2.6 7.0 0.00 0.00 0.00 24 1012.0
20260503014548 82 225 3.5 6.1 0.00 0.00 0.00 23 1012.0
20260503013043 83 201 1.7 4.3 0.00 0.00 0.00 23 1012.0
20260503011542 83 212 1.7 3.5 0.00 0.00 0.00 22 1012.1
20260503010043 83 273 0.0 4.3 0.00 0.00 0.00 22 1012.1
20260503004540 83 322 0.0 7.8 0.00 0.00 0.00 22 1012.2
20260503003045 83 212 2.6 8.7 0.00 0.00 0.00 23 1012.3
20260503001544 83 291 2.6 7.0 0.00 0.00 0.00 22 1012.1
20260503000041 83 225 5.2 9.6 0.00 0.00 0.00 23 1012.2
20260502234547 83 219 4.3 8.7 0.00 0.00 0.00 23 1012.3
20260502233039 83 240 0.9 3.5 0.00 0.00 0.00 23 1012.5
20260502231533 83 267 2.6 7.0 0.00 0.00 0.00 23 1012.7
20260502230034 83 215 0.9 7.0 0.00 0.00 0.00 22 1012.7
20260502224526 84 273 2.6 7.8 0.00 0.00 0.00 25 1013.0
20260502223036 83 42 3.5 8.7 0.00 0.00 0.00 25 1013.1
20260502221521 83 288 2.6 6.1 0.00 0.00 0.00 23 1013.2
20260502220023 82 252 3.5 7.8 0.00 0.00 0.00 24 1013.4